Location: Bittkow
(50.3000°N, 19.0000°E)
Time: 15:45:14
(UTC+00:00)

Resurs 1-4 Rocket - Pass Details

Date: 19 September 2020
Orbit: 800 x 813 km, 98.6° (Epoch: 30 October)

Event Time Altitude Azimuth Distance (km) Brightness Sun altitude
Rises 00:28:48 0° 15° (NNE) 3,326 6.3 -33.1°
Reaches altitude 10° 00:31:08 10° 16° (NNE) 2,392 5.3 -32.9°
Enters shadow 00:34:55 48° 23° (NNE) 1,046 2.9 -32.6°
